Spencer, IA

9:25 AM CDT on June 24, 2017 (GMT -0500)
Spencer Municipal

Weather History for KSPW - April, 2013

Change the Weather History Date:

Sunday, April 7, 2013

  Actual Average Record
Temperature  
Mean Temperature 39 °F -  
Max Temperature 54 °F 56 °F 86 °F (1988)
Min Temperature 24 °F 33 °F 10 °F (1990)
Degree Days  
Heating Degree Days 26    
Moisture  
Dew Point 32 °F    
Average Humidity 87    
Maximum Humidity 100    
Minimum Humidity 59    
Precipitation  
Precipitation 0.03 in - - ()
Sea Level Pressure  
Sea Level Pressure 29.86 in    
Wind  
Wind Speed 7 mph (NE)    
Max Wind Speed 18 mph    
Max Gust Speed -    
Visibility 3 miles    
Events Fog , Rain    
Averages and records for this station are not official NWS values.
T = Trace of Precipitation, MM = Missing Value Source: NWS Daily Summary

Daily Weather History Graph

Daily Weather History Graph

Search for Another Location

Airport or City:

Trip Planner

Search our weather history database for the weather conditions in past years. The results will help you decide how hot, cold, wet, or windy it might be!

Date:

Astronomy

Apr. 07, 2013 Rise Set
Actual Time 6:51 AM CDT 7:54 PM CDT
Civil Twilight 6:22 AM CDT 8:23 PM CDT
Nautical Twilight 5:48 AM CDT 8:58 PM CDT
Astronomical Twilight 5:11 AM CDT 9:35 PM CDT
Moon 5:13 AM CDT (4/7) 5:24 PM CDT (4/7)
Length of Visible Light 14h 00m
Length of Day
13h 02m
Waning Crescent, 8% of the Moon is Illuminated
Apr 7
Waning Crescent
Apr 10
New
Apr 18
First Quarter
Apr 25
Full
May 2
Last Quarter

Hourly Weather History & Observations

Time (CDT) Temp. Windchill Dew Point Humidity Pressure Visibility Wind Dir Wind Speed Gust Speed Precip Events Conditions
12:53 AM 30.9 °F 24.3 °F 28.0 °F 89% 29.84 in 3.0 mi North 6.9 mph - N/A   Clear
1:28 AM 33.8 °F 26.4 °F 30.2 °F 87% 29.83 in 3.0 mi North 9.2 mph - N/A   Scattered Clouds
1:37 AM 33.8 °F 25.8 °F 30.2 °F 87% 29.83 in 3.0 mi North 10.4 mph - N/A   Mostly Cloudy
1:53 AM 34.0 °F 27.2 °F 30.9 °F 89% 29.87 in 4.0 mi North 8.1 mph - N/A   Overcast
2:13 AM 33.8 °F 27.7 °F 30.2 °F 87% 29.85 in 4.0 mi North 6.9 mph - N/A   Mostly Cloudy
2:26 AM 30.2 °F - 28.4 °F 93% 29.85 in 4.0 mi Calm Calm - N/A   Scattered Clouds
2:53 AM 28.9 °F - 28.9 °F 100% 29.88 in 4.0 mi Calm Calm - N/A   Clear
3:03 AM 30.2 °F - 28.4 °F 93% 29.84 in 2.0 mi Calm Calm - N/A   Clear
3:20 AM 30.2 °F - 28.4 °F 93% 29.84 in 0.8 mi Calm Calm - N/A   Clear
3:32 AM 28.4 °F - 26.6 °F 93% 29.84 in 0.2 mi Calm Calm - N/A Fog Light Freezing Fog
3:53 AM 28.9 °F - 26.1 °F 89% 29.87 in 0.2 mi Calm Calm - N/A Fog Light Freezing Fog
4:23 AM 26.6 °F 21.2 °F 24.8 °F 93% 29.85 in 1.0 mi NNW 4.6 mph - N/A   Mist
4:32 AM 24.8 °F 20.5 °F 24.8 °F 100% 29.86 in 2.0 mi NNW 3.5 mph - N/A   Scattered Clouds
4:53 AM 28.9 °F 22.8 °F 26.1 °F 89% 29.88 in 3.0 mi North 5.8 mph - N/A   Mostly Cloudy
5:05 AM 30.2 °F 21.3 °F 28.4 °F 93% 29.85 in 2.5 mi North 10.4 mph - N/A   Overcast
5:53 AM 30.9 °F 22.8 °F 28.9 °F 92% 29.88 in 2.0 mi NNE 9.2 mph - N/A   Overcast
6:01 AM 30.2 °F 21.9 °F 28.4 °F 93% 29.86 in 1.8 mi North 9.2 mph - N/A   Overcast
6:53 AM 30.9 °F 22.8 °F 30.0 °F 96% 29.91 in 1.2 mi NNE 9.2 mph - N/A   Overcast
7:29 AM 30.2 °F 24.3 °F 28.4 °F 93% 29.89 in 0.8 mi NNE 5.8 mph - N/A   Overcast
7:53 AM 30.9 °F 23.5 °F 28.9 °F 92% 29.93 in 0.5 mi NNE 8.1 mph - N/A Fog Light Freezing Fog
8:08 AM 30.2 °F 22.6 °F 28.4 °F 93% 29.90 in 0.2 mi NE 8.1 mph - N/A Fog Light Freezing Fog
8:39 AM 30.2 °F 22.6 °F 30.2 °F 100% 29.91 in 0.5 mi ENE 8.1 mph - N/A Fog Light Freezing Fog
8:53 AM 32.0 °F 24.8 °F 30.0 °F 92% 29.94 in 0.2 mi NE 8.1 mph - N/A Fog Fog
9:41 AM 32.0 °F 24.8 °F 30.2 °F 93% 29.91 in 0.8 mi ENE 8.1 mph - N/A   Overcast
9:53 AM 32.0 °F 25.6 °F 30.0 °F 92% 29.95 in 0.8 mi NE 6.9 mph - N/A   Overcast
10:02 AM 32.0 °F 25.6 °F 30.2 °F 93% 29.92 in 1.0 mi ENE 6.9 mph - N/A   Overcast
10:16 AM 33.8 °F 28.6 °F 30.2 °F 87% 29.92 in 0.8 mi East 5.8 mph - N/A   Overcast
10:30 AM 33.8 °F 27.0 °F 30.2 °F 87% 29.92 in 1.5 mi East 8.1 mph - N/A   Overcast
10:39 AM 33.8 °F 26.4 °F 32.0 °F 93% 29.91 in 2.5 mi East 9.2 mph - N/A   Overcast
10:53 AM 34.0 °F 26.6 °F 32.0 °F 92% 29.94 in 1.8 mi ENE 9.2 mph - N/A   Overcast
11:02 AM 33.8 °F 25.8 °F 30.2 °F 87% 29.90 in 3.0 mi East 10.4 mph - N/A   Overcast
11:53 AM 37.0 °F 28.5 °F 32.0 °F 82% 29.93 in 6.0 mi East 13.8 mph - N/A   Haze
12:53 PM 41.0 °F 34.3 °F 33.1 °F 73% 29.92 in 9.0 mi SE 11.5 mph - N/A   Overcast
1:53 PM 45.0 °F 37.4 °F 35.1 °F 68% 29.87 in 9.0 mi ESE 18.4 mph - N/A   Partly Cloudy
2:53 PM 48.0 °F - 37.0 °F 66% 29.83 in 10.0 mi East 17.3 mph - N/A   Mostly Cloudy
3:53 PM 53.1 °F - 39.0 °F 59% 29.80 in 10.0 mi ESE 15.0 mph - N/A   Partly Cloudy
4:53 PM 53.1 °F - 39.9 °F 61% 29.79 in 10.0 mi ESE 8.1 mph - N/A   Overcast
5:53 PM 54.0 °F - 41.0 °F 62% 29.78 in 10.0 mi SSE 11.5 mph - 0.00 in   Mostly Cloudy
6:53 PM 52.0 °F - 42.1 °F 69% 29.77 in 7.0 mi East 5.8 mph - 0.00 in Rain Light Rain
7:53 PM 48.9 °F - 44.1 °F 83% 29.76 in 6.0 mi NE 10.4 mph - 0.00 in Rain Light Rain
8:53 PM 48.0 °F - 45.0 °F 89% 29.75 in 5.0 mi NE 8.1 mph - 0.01 in Rain Light Rain
9:53 PM 46.9 °F - 45.0 °F 93% 29.73 in 4.0 mi East 9.2 mph - 0.02 in Rain Light Rain
10:53 PM 48.0 °F - 45.0 °F 89% 29.71 in 3.0 mi East 11.5 mph - N/A   Overcast
11:53 PM 48.0 °F - 45.0 °F 89% 29.68 in 4.0 mi East 10.4 mph - N/A   Overcast